Saint David, ME

4:39 PM EST on January 21, 2017 (GMT -0500)
Frenchville

Weather History for KFVE - January, 2013

Change the Weather History Date:

Thursday, January 3, 2013

  Actual Average Record
Temperature  
Mean Temperature -1 °F 11 °F  
Max Temperature 3 °F 19 °F 39 °F (1998)
Min Temperature -5 °F 3 °F -23 °F (2014)
Degree Days  
Heating Degree Days 66    
Month to date heating degree days 191  
Since 1 July heating degree days 3602  
Cooling Degree Days 0    
Month to date cooling degree days 0  
Year to date cooling degree days 0  
Moisture  
Dew Point -8 °F    
Average Humidity 74    
Maximum Humidity 83    
Minimum Humidity 66    
Precipitation  
Precipitation 0.00 in 0.12 in 0.82 in (1998)
Month to date precipitation 0.01 0.38  
Year to date precipitation 0.01 0.38  
Sea Level Pressure  
Sea Level Pressure 29.91 in    
Wind  
Wind Speed 12 mph (WNW)    
Max Wind Speed 26 mph    
Max Gust Speed 33 mph    
Visibility 10 miles    
Events      
T = Trace of Precipitation, MM = Missing Value Source: NWS Daily Summary

Daily Weather History Graph

Daily Weather History Graph

Search for Another Location

Airport or City:

Trip Planner

Search our weather history database for the weather conditions in past years. The results will help you decide how hot, cold, wet, or windy it might be!

Date:

Astronomy

Jan. 03, 2013 Rise Set
Actual Time 7:20 AM EST 3:55 PM EST
Civil Twilight 6:44 AM EST 4:31 PM EST
Nautical Twilight 6:05 AM EST 5:10 PM EST
Astronomical Twilight 5:28 AM EST 5:47 PM EST
Moon 10:56 PM EST (1/3) 10:03 AM EST (1/3)
Length of Visible Light 9h 46m
Length of Day
8h 35m
Waning Gibbous, 65% of the Moon is Illuminated
Jan 3
Waning Gibbous
Jan 4
Last Quarter
Jan 11
New
Jan 18
First Quarter
Jan 26
Full

Hourly Weather History & Observations

Time (EST) Temp. Windchill Dew Point Humidity Pressure Visibility Wind Dir Wind Speed Gust Speed Precip Events Conditions
12:53 AM -2.0 °F -23.3 °F -9.0 °F 72% 29.91 in 10.0 mi NW 17.3 mph 26.5 mph N/A   Clear
1:53 AM -2.9 °F -22.4 °F -9.9 °F 72% 29.94 in 10.0 mi NW 13.8 mph 23.0 mph N/A   Clear
2:53 AM -4.0 °F -25.2 °F -9.9 °F 76% 29.94 in 10.0 mi NNW 16.1 mph 25.3 mph N/A   Partly Cloudy
3:53 AM -2.9 °F -28.6 °F -9.9 °F 72% 29.94 in 10.0 mi NW 26.5 mph 32.2 mph N/A   Clear
4:53 AM -4.0 °F -27.6 °F -9.9 °F 76% 29.94 in 10.0 mi NNW 20.7 mph - N/A   Clear
5:53 AM -4.0 °F -23.7 °F -9.9 °F 76% 29.95 in 10.0 mi NW 13.8 mph 19.6 mph N/A   Clear
6:53 AM -4.0 °F -24.5 °F -11.0 °F 72% 29.96 in 10.0 mi NW 15.0 mph 24.2 mph N/A   Clear
7:53 AM -4.0 °F -23.7 °F -9.9 °F 76% 29.95 in 10.0 mi NNW 13.8 mph 23.0 mph N/A   Clear
8:53 AM -2.9 °F -16.5 °F -9.0 °F 75% 29.96 in 10.0 mi NW 6.9 mph - N/A   Clear
9:53 AM -0.9 °F -19.9 °F -9.0 °F 69% 29.96 in 10.0 mi WNW 13.8 mph - N/A   Clear
10:53 AM -0.0 °F -20.1 °F -8.0 °F 69% 29.94 in 10.0 mi NNW 16.1 mph - N/A   Overcast
11:53 AM 1.9 °F -13.8 °F -7.1 °F 66% 29.92 in 10.0 mi NW 10.4 mph - N/A   Overcast
12:53 PM 1.9 °F -16.9 °F -7.1 °F 66% 29.90 in 10.0 mi NW 15.0 mph 18.4 mph N/A   Overcast
1:53 PM 3.0 °F -14.1 °F -6.0 °F 66% 29.90 in 10.0 mi WNW 12.7 mph - N/A   Overcast
2:53 PM 3.0 °F -10.5 °F - N/A% 29.89 in 10.0 mi WNW 8.1 mph - N/A   Mostly Cloudy
3:53 PM 1.9 °F -14.7 °F -5.1 °F 72% 29.88 in 10.0 mi WNW 11.5 mph - N/A   Overcast
4:53 PM 1.0 °F -14.0 °F -5.1 °F 75% 29.87 in 10.0 mi WNW 9.2 mph - N/A   Clear
5:53 PM 1.9 °F -10.6 °F -5.1 °F 72% 29.87 in 10.0 mi NW 6.9 mph - N/A   Clear
6:53 PM -0.9 °F -15.3 °F -6.0 °F 79% 29.87 in 10.0 mi West 8.1 mph - N/A   Clear
7:53 PM -2.0 °F -13.9 °F -6.0 °F 83% 29.87 in 10.0 mi WNW 5.8 mph - N/A   Scattered Clouds
8:53 PM -2.0 °F -12.2 °F -6.0 °F 83% 29.86 in 10.0 mi WSW 4.6 mph - N/A   Overcast
9:53 PM -2.0 °F -12.2 °F -6.0 °F 83% 29.85 in 10.0 mi WSW 4.6 mph - N/A   Overcast
10:53 PM -2.9 °F -11.2 °F -7.1 °F 82% 29.83 in 10.0 mi West 3.5 mph - N/A   Clear
11:53 PM -4.0 °F -17.8 °F -9.0 °F 79% 29.82 in 10.0 mi West 6.9 mph - N/A   Clear